Location: Cosy Dell
(34.2789°N, 117.4537°W)
Time: 00:38:27
(UTC+00:00)

CZ-4C R/B - Pass Details

Date: 14 July 2020
Orbit: 409 x 491 km, 97.7° (Epoch: 12 August)

Event Time Altitude Azimuth Distance (km) Brightness Sun altitude
Exits shadow 11:43:04 11° 185° (S) 1,476 5.1 -12.3°
Maximum altitude 11:46:06 47° 260° (W) 569 3.0 -11.8°
Drops below altitude 10° 11:49:12 10° 336° (NNW) 1,499 5.7 -11.3°
Sets 11:51:13 0° 342° (NNW) 2,358 6.8 -11.0°
